Regional Weather Roundup
Issued by NWS

Home | Current Version | Previous Version | Graphics & Text | Print | Product List | Glossary On
Versions: 1 2 3 4 5 6 7 8 9 10 11 12 13 14 15 16 17 18 19 20 21 22 23 24 25 26 27 28 29 30 31 32 33 34 35 36 37 38 39 40 41 42 43 44 45 46 47 48 49 50
614
ASUS43 KBIS 271102
RWRND

NORTH DAKOTA REGIONAL WEATHER ROUNDUP
NATIONAL WEATHER SERVICE BISMARCK ND
600 AM CDT SAT AUG 27 2016

NOTE: "FAIR" INDICATES FEW OR NO CLOUDS BELOW 12,000 FEET WITH NO
SIGNIFICANT WEATHER AND/OR OBSTRUCTIONS TO VISIBILITY.


NDZ001>003-009>011-017-271200-
NORTHWEST NORTH DAKOTA

CITY           SKY/WX    TMP DP  RH WIND       PRES   REMARKS
WILLISTON      PTCLDY    46  42  86 CALM      29.91S
MINOT          PTCLDY    56  53  90 SW7       29.89S
MINOT AFB      PTCLDY    50  49  95 SW7       29.88F
$$

NDZ018>021-031>035-040>046-271200-
SOUTHWEST NORTH DAKOTA

CITY           SKY/WX    TMP DP  RH WIND       PRES   REMARKS
BISMARCK       PTCLDY    51  50  96 SE7       29.93F
DICKINSON      CLOUDY    50  47  89 S10       29.92S
GARRISON         N/A     56  54  93 W7        29.91R
HETTINGER ARPT PTCLDY    45  43  93 N3        29.97F
$$

NDZ004>008-012>016-024-026-027-054-271200-
NORTHEAST NORTH DAKOTA

CITY           SKY/WX    TMP DP  RH WIND       PRES   REMARKS
GRAND FORKS    CLOUDY    59  56  89 S8        29.95F
GRND FRKS AFB  CLOUDY    58  55  91 S5        29.95F
DEVILS LAKE    CLOUDY    55  51  86 SE5       29.93F
$$

NDZ022-023-025-028>030-036>039-047>053-271200-
SOUTHEAST NORTH DAKOTA

CITY           SKY/WX    TMP DP  RH WIND       PRES   REMARKS
FARGO          LGT RAIN  61  58  90 S6        29.98F
JAMESTOWN      CLOUDY    57  55  93 SE5       29.94F
$$





USA.gov is the U.S. government's official web portal to all federal, state and local government web resources and services.